^^
Meteo Knjazevac Station Historical Data
Daily Summary for April 16, 2021 Units:  Metric    English   Both
Daily Weekly Monthly Yearly Custom
  High: Low: Average:
Temperature: 10.7 °C 8.1 °C 9.2 °C
Dew Point: 10.6 °C 7.9 °C 9.1 °C
Humidity: 99% 99% 99%
Wind Speed: 11.3km/h 0km/h 3.5km/h
Wind Gust: 22.5km/h - -
Wind- - South
Pressure: 1022.2 hPa 1016.8 hPa -
Precipitation: 16.26 mm    
Historical Graphs
 
 
Tabular Data for April 16, 2021
Time Temperature Dew Point Pressure Wind Wind Speed Wind Gust Humidity Rainfall Rate (Hourly) solar Conditions
00:00 8.1 °C 7.9 °C 1017.5 hPa North 9.7 km/h 22.5 km/h 99% 0 mm 0 W/m2
00:10 8.1 °C 7.9 °C 1017.5 hPa North 9.7 km/h 19.3 km/h 99% 0 mm 0 W/m2
00:20 8.1 °C 7.9 °C 1017.5 hPa North 3.2 km/h 16.1 km/h 99% 0 mm 0 W/m2
00:30 8.1 °C 7.9 °C 1017.5 hPa North 4.8 km/h 16.1 km/h 99% 0 mm 0 W/m2
00:40 8.1 °C 7.9 °C 1017.5 hPa North 8 km/h 17.7 km/h 99% 0 mm 0 W/m2
00:50 8.2 °C 8.1 °C 1017.5 hPa North 4.8 km/h 16.1 km/h 99% 0 mm 0 W/m2
01:00 8.2 °C 8.1 °C 1017.2 hPa North 3.2 km/h 11.3 km/h 99% 0 mm 0 W/m2
01:10 8.2 °C 8.1 °C 1017.5 hPa North 4.8 km/h 12.9 km/h 99% 0 mm 0 W/m2
01:20 8.2 °C 8.1 °C 1017.5 hPa North 3.2 km/h 11.3 km/h 99% 0 mm 0 W/m2
01:30 8.3 °C 8.2 °C 1017.5 hPa Calm   11.3 km/h 99% 0 mm 0 W/m2
01:40 8.3 °C 8.2 °C 1017.5 hPa NNE 3.2 km/h 11.3 km/h 99% 0.25 mm 0 W/m2
01:50 8.3 °C 8.2 °C 1017.5 hPa Calm   4.8 km/h 99% 0.51 mm 0 W/m2
02:00 8.3 °C 8.2 °C 1017.2 hPa North 4.8 km/h 9.7 km/h 99% 0.76 mm 0 W/m2
02:10 8.3 °C 8.1 °C 1017.2 hPa Calm   9.7 km/h 99% 0.51 mm 0 W/m2
02:20 8.3 °C 8.2 °C 1017.2 hPa Calm   12.9 km/h 99% 0.51 mm 0 W/m2
02:30 8.3 °C 8.2 °C 1017.2 hPa NNE 1.6 km/h 6.4 km/h 99% 0.25 mm 0 W/m2
02:40 8.3 °C 8.2 °C 1017.2 hPa NNE 1.6 km/h 8 km/h 99% 0.51 mm 0 W/m2
02:50 8.3 °C 8.2 °C 1017.2 hPa NNE 3.2 km/h 4.8 km/h 99% 0.51 mm 0 W/m2
03:00 8.4 °C 8.3 °C 1017.2 hPa Calm   3.2 km/h 99% 0.51 mm 0 W/m2
03:10 8.4 °C 8.2 °C 1017.2 hPa North 3.2 km/h 8 km/h 99% 0.25 mm 0 W/m2
03:20 8.4 °C 8.3 °C 1017.2 hPa North 3.2 km/h 9.7 km/h 99% 0 mm 0 W/m2
03:30 8.5 °C 8.3 °C 1017.2 hPa Calm   12.9 km/h 99% 0 mm 0 W/m2
03:40 8.6 °C 8.4 °C 1016.8 hPa North 3.2 km/h 14.5 km/h 99% 0 mm 0 W/m2
03:50 8.6 °C 8.4 °C 1016.8 hPa North 8 km/h 12.9 km/h 99% 0 mm 0 W/m2
04:00 8.7 °C 8.6 °C 1016.8 hPa North 4.8 km/h 16.1 km/h 99% 0 mm 0 W/m2
04:10 8.8 °C 8.7 °C 1016.8 hPa North 8 km/h 12.9 km/h 99% 0 mm 0 W/m2
04:20 8.8 °C 8.7 °C 1016.8 hPa North 8 km/h 14.5 km/h 99% 0.25 mm 0 W/m2
04:30 8.9 °C 8.8 °C 1016.8 hPa North 4.8 km/h 16.1 km/h 99% 0.25 mm 0 W/m2
04:40 8.9 °C 8.8 °C 1017.2 hPa North 4.8 km/h 14.5 km/h 99% 0.25 mm 0 W/m2
04:50 8.9 °C 8.8 °C 1017.2 hPa North 4.8 km/h 12.9 km/h 99% 0.51 mm 0 W/m2
05:00 8.9 °C 8.8 °C 1017.2 hPa North 4.8 km/h 12.9 km/h 99% 0.51 mm 0 W/m2
05:10 9 °C 8.8 °C 1017.2 hPa North 11.3 km/h 17.7 km/h 99% 0.25 mm 0 W/m2
05:20 9 °C 8.8 °C 1016.8 hPa North 3.2 km/h 17.7 km/h 99% 0 mm 0 W/m2
05:30 9 °C 8.8 °C 1017.2 hPa North 9.7 km/h 17.7 km/h 99% 0.25 mm 0 W/m2
05:40 9.1 °C 8.9 °C 1017.2 hPa North 4.8 km/h 14.5 km/h 99% 0.25 mm 0 W/m2
05:50 9.1 °C 8.9 °C 1017.2 hPa North 4.8 km/h 16.1 km/h 99% 0.51 mm 0 W/m2
06:00 9.1 °C 8.9 °C 1016.8 hPa NNE 4.8 km/h 12.9 km/h 99% 0.25 mm 0 W/m2
06:10 9.1 °C 8.9 °C 1017.2 hPa North 4.8 km/h 14.5 km/h 99% 0.51 mm 0 W/m2
06:20 9.1 °C 8.9 °C 1017.2 hPa North 8 km/h 12.9 km/h 99% 0.51 mm 0 W/m2
06:30 9.1 °C 8.9 °C 1017.2 hPa North 8 km/h 14.5 km/h 99% 0.51 mm 0 W/m2
06:40 9.1 °C 8.9 °C 1017.2 hPa North 3.2 km/h 9.7 km/h 99% 0.25 mm 0 W/m2
06:50 9.1 °C 8.9 °C 1017.2 hPa North 3.2 km/h 11.3 km/h 99% 0.51 mm 0 W/m2
07:00 9.1 °C 8.9 °C 1017.2 hPa North 1.6 km/h 11.3 km/h 99% 0.51 mm 1 W/m2
07:10 9.2 °C 9.1 °C 1017.2 hPa Calm   9.7 km/h 99% 0.51 mm 3 W/m2
07:20 9.2 °C 9.1 °C 1017.2 hPa North 4.8 km/h 14.5 km/h 99% 0.25 mm 5 W/m2
07:30 9.2 °C 9.1 °C 1017.2 hPa North 1.6 km/h 11.3 km/h 99% 0 mm 5 W/m2
07:40 9.2 °C 9.1 °C 1017.5 hPa North 1.6 km/h 11.3 km/h 99% 0.25 mm 5 W/m2
07:50 9.3 °C 9.2 °C 1017.8 hPa North 3.2 km/h 8 km/h 99% 0 mm 6 W/m2
08:00 9.2 °C 9.1 °C 1017.8 hPa North 4.8 km/h 11.3 km/h 99% 0 mm 7 W/m2
08:10 9.3 °C 9.2 °C 1017.8 hPa North 4.8 km/h 12.9 km/h 99% 1.52 mm 10 W/m2
08:20 9.3 °C 9.2 °C 1017.8 hPa North 8 km/h 14.5 km/h 99% 0 mm 24 W/m2
08:30 9.4 °C 9.3 °C 1017.8 hPa North 1.6 km/h 12.9 km/h 99% 0.25 mm 33 W/m2
08:40 9.4 °C 9.3 °C 1017.8 hPa North 3.2 km/h 12.9 km/h 99% 0 mm 26 W/m2
08:50 9.5 °C 9.3 °C 1018.2 hPa North 4.8 km/h 16.1 km/h 99% 0 mm 36 W/m2
09:00 9.5 °C 9.3 °C 1018.2 hPa North 3.2 km/h 14.5 km/h 99% 0 mm 51 W/m2
09:10 9.6 °C 9.4 °C 1018.2 hPa North 3.2 km/h 12.9 km/h 99% 0.25 mm 66 W/m2
09:20 9.7 °C 9.6 °C 1018.2 hPa North 4.8 km/h 12.9 km/h 99% 0.25 mm 56 W/m2
09:30 9.7 °C 9.6 °C 1018.2 hPa North 4.8 km/h 11.3 km/h 99% 0 mm 50 W/m2
09:40 9.8 °C 9.7 °C 1018.2 hPa North 1.6 km/h 12.9 km/h 99% 0 mm 48 W/m2
09:50 9.8 °C 9.7 °C 1018.5 hPa NNE 4.8 km/h 14.5 km/h 99% 0 mm 55 W/m2
10:00 9.8 °C 9.7 °C 1018.5 hPa NNE 8 km/h 12.9 km/h 99% 0 mm 59 W/m2
10:10 9.8 °C 9.7 °C 1018.5 hPa North 3.2 km/h 12.9 km/h 99% 0 mm 63 W/m2
10:20 9.9 °C 9.8 °C 1018.5 hPa North 8 km/h 12.9 km/h 99% 0 mm 83 W/m2
10:30 10 °C 9.8 °C 1018.8 hPa North 1.6 km/h 12.9 km/h 99% 0 mm 91 W/m2
10:40 10.1 °C 9.9 °C 1018.8 hPa North 3.2 km/h 9.7 km/h 99% 0 mm 84 W/m2
10:50 10.1 °C 9.9 °C 1018.8 hPa Calm   6.4 km/h 99% 0 mm 108 W/m2
11:00 10.2 °C 10.1 °C 1018.8 hPa North 3.2 km/h 11.3 km/h 99% 0 mm 122 W/m2
11:10 10.3 °C 10.2 °C 1018.8 hPa North 3.2 km/h 8 km/h 99% 0 mm 125 W/m2
11:20 10.4 °C 10.2 °C 1018.8 hPa North 3.2 km/h 9.7 km/h 99% 0 mm 100 W/m2
11:30 10.5 °C 10.3 °C 1018.8 hPa North 3.2 km/h 9.7 km/h 99% 0 mm 94 W/m2
11:40 10.5 °C 10.3 °C 1018.8 hPa NNE 3.2 km/h 11.3 km/h 99% 0 mm 95 W/m2
11:50 10.6 °C 10.4 °C 1019.2 hPa North 3.2 km/h 9.7 km/h 99% 0 mm 93 W/m2
12:00 10.6 °C 10.4 °C 1019.2 hPa North 1.6 km/h 9.7 km/h 99% 0 mm 98 W/m2
12:10 10.7 °C 10.6 °C 1019.2 hPa Calm   6.4 km/h 99% 0 mm 99 W/m2
12:20 10.7 °C 10.6 °C 1019.2 hPa Calm   4.8 km/h 99% 0 mm 72 W/m2
12:30 10.7 °C 10.6 °C 1019.2 hPa Calm   4.8 km/h 99% 0 mm 54 W/m2
12:40 10.7 °C 10.6 °C 1019.2 hPa NNE 3.2 km/h 8 km/h 99% 0 mm 61 W/m2
12:50 10.7 °C 10.6 °C 1019.2 hPa NNE 3.2 km/h 8 km/h 99% 0 mm 48 W/m2
13:00 10.7 °C 10.6 °C 1019.2 hPa NNE 3.2 km/h 8 km/h 99% 0 mm 68 W/m2
13:10 10.7 °C 10.6 °C 1019.2 hPa NNE 3.2 km/h 9.7 km/h 99% 0 mm 52 W/m2
13:20 10.7 °C 10.6 °C 1019.2 hPa NNW 4.8 km/h 8 km/h 99% 0 mm 43 W/m2
13:30 10.5 °C 10.3 °C 1019.2 hPa West 4.8 km/h 9.7 km/h 99% 0 mm 54 W/m2
13:40 10.3 °C 10.2 °C 1019.2 hPa West 4.8 km/h 12.9 km/h 99% 0 mm 63 W/m2
13:50 10.2 °C 10.1 °C 1019.2 hPa West 8 km/h 12.9 km/h 99% 0 mm 94 W/m2
14:00 10 °C 9.8 °C 1019.2 hPa West 8 km/h 16.1 km/h 99% 0 mm 84 W/m2
14:10 9.9 °C 9.8 °C 1019.2 hPa West 8 km/h 11.3 km/h 99% 0 mm 69 W/m2
14:20 9.8 °C 9.7 °C 1019.2 hPa West 9.7 km/h 16.1 km/h 99% 0 mm 87 W/m2
14:30 9.8 °C 9.7 °C 1019.2 hPa West 9.7 km/h 14.5 km/h 99% 0 mm 75 W/m2
14:40 9.7 °C 9.6 °C 1019.2 hPa West 9.7 km/h 14.5 km/h 99% 0 mm 69 W/m2
14:50 9.6 °C 9.4 °C 1019.2 hPa West 8 km/h 16.1 km/h 99% 0 mm 47 W/m2
15:00 9.5 °C 9.3 °C 1019.2 hPa West 8 km/h 16.1 km/h 99% 0 mm 49 W/m2
15:10 9.5 °C 9.3 °C 1019.2 hPa West 4.8 km/h 14.5 km/h 99% 0 mm 43 W/m2
15:20 9.5 °C 9.3 °C 1019.5 hPa West 8 km/h 12.9 km/h 99% 0 mm 45 W/m2
15:30 9.5 °C 9.3 °C 1019.5 hPa West 8 km/h 16.1 km/h 99% 0 mm 38 W/m2
15:40 9.5 °C 9.3 °C 1019.5 hPa West 4.8 km/h 16.1 km/h 99% 0 mm 30 W/m2
15:50 9.5 °C 9.3 °C 1019.5 hPa WSW 4.8 km/h 16.1 km/h 99% 0 mm 28 W/m2
16:00 9.5 °C 9.3 °C 1019.9 hPa WSW 4.8 km/h 11.3 km/h 99% 0 mm 22 W/m2
16:10 9.5 °C 9.3 °C 1019.9 hPa WSW 3.2 km/h 8 km/h 99% 0 mm 16 W/m2
16:20 9.5 °C 9.3 °C 1019.9 hPa West 4.8 km/h 11.3 km/h 99% 0 mm 15 W/m2
16:30 9.4 °C 9.3 °C 1019.9 hPa West 3.2 km/h 12.9 km/h 99% 0 mm 12 W/m2
16:40 9.4 °C 9.3 °C 1019.9 hPa WSW 4.8 km/h 9.7 km/h 99% 0 mm 10 W/m2
16:50 9.4 °C 9.2 °C 1019.9 hPa WSW 3.2 km/h 9.7 km/h 99% 0 mm 8 W/m2
17:00 9.3 °C 9.2 °C 1019.9 hPa Calm   9.7 km/h 99% 0 mm 8 W/m2
17:10 9.3 °C 9.2 °C 1020.2 hPa SW 1.6 km/h 8 km/h 99% 0 mm 5 W/m2
17:20 9.3 °C 9.2 °C 1020.2 hPa SSW 3.2 km/h 4.8 km/h 99% 0 mm 3 W/m2
17:30 9.2 °C 9.1 °C 1020.2 hPa SW 1.6 km/h 6.4 km/h 99% 0 mm 1 W/m2
17:40 9.2 °C 9.1 °C 1020.5 hPa SW 3.2 km/h 6.4 km/h 99% 0 mm 0 W/m2
17:50 9.2 °C 9.1 °C 1020.5 hPa SW 1.6 km/h 6.4 km/h 99% 0 mm 0 W/m2
18:00 9.2 °C 9.1 °C 1020.5 hPa SSW 3.2 km/h 6.4 km/h 99% 0 mm 0 W/m2
18:10 9.2 °C 9.1 °C 1020.5 hPa SSW 1.6 km/h 6.4 km/h 99% 0 mm 0 W/m2
18:20 9.2 °C 9.1 °C 1020.9 hPa SW 3.2 km/h 8 km/h 99% 0 mm 0 W/m2
18:30 9.1 °C 8.9 °C 1020.9 hPa SW 3.2 km/h 8 km/h 99% 0 mm 0 W/m2
18:40 9.1 °C 8.9 °C 1020.9 hPa SW 1.6 km/h 6.4 km/h 99% 0 mm 0 W/m2
18:50 9.1 °C 8.9 °C 1020.9 hPa West 1.6 km/h 4.8 km/h 99% 0 mm 0 W/m2
19:00 9.1 °C 8.9 °C 1021.2 hPa WSW 1.6 km/h 4.8 km/h 99% 0 mm 0 W/m2
19:10 9.1 °C 8.9 °C 1021.2 hPa South 1.6 km/h 3.2 km/h 99% 0 mm 0 W/m2
19:20 9.1 °C 8.9 °C 1021.2 hPa Calm   3.2 km/h 99% 0 mm 0 W/m2
19:30 9.1 °C 8.9 °C 1021.6 hPa SSW 3.2 km/h 4.8 km/h 99% 2.29 mm 0 W/m2
19:40 9.1 °C 8.9 °C 1021.6 hPa SW 1.6 km/h 4.8 km/h 99% 0 mm 0 W/m2
19:50 9 °C 8.8 °C 1021.6 hPa SSE 1.6 km/h 6.4 km/h 99% 0 mm 0 W/m2
20:00 9 °C 8.8 °C 1021.6 hPa SE 1.6 km/h 4.8 km/h 99% 0 mm 0 W/m2
20:10 9 °C 8.8 °C 1021.6 hPa Calm   4.8 km/h 99% 0 mm 0 W/m2
20:20 9 °C 8.8 °C 1021.6 hPa Calm   6.4 km/h 99% 0 mm 0 W/m2
20:30 9 °C 8.8 °C 1021.6 hPa NNE 1.6 km/h 3.2 km/h 99% 0 mm 0 W/m2
20:40 9 °C 8.8 °C 1021.6 hPa Calm   3.2 km/h 99% 0 mm 0 W/m2
20:50 9 °C 8.8 °C 1021.9 hPa Calm   3.2 km/h 99% 0 mm 0 W/m2
21:00 9 °C 8.8 °C 1021.9 hPa Calm   3.2 km/h 99% 0 mm 0 W/m2
21:10 9 °C 8.8 °C 1021.9 hPa Calm   3.2 km/h 99% 0 mm 0 W/m2
21:20 9 °C 8.8 °C 1021.9 hPa Calm   3.2 km/h 99% 0 mm 0 W/m2
21:30 8.9 °C 8.8 °C 1021.9 hPa WSW 1.6 km/h 4.8 km/h 99% 0 mm 0 W/m2
21:40 8.9 °C 8.8 °C 1021.9 hPa Calm   3.2 km/h 99% 0 mm 0 W/m2
21:50 8.9 °C 8.8 °C 1022.2 hPa SSE 1.6 km/h 3.2 km/h 99% 0 mm 0 W/m2
22:00 8.9 °C 8.8 °C 1022.2 hPa SW 1.6 km/h 3.2 km/h 99% 0 mm 0 W/m2
22:10 8.9 °C 8.8 °C 1022.2 hPa Calm   4.8 km/h 99% 0 mm 0 W/m2
22:20 8.9 °C 8.8 °C 1022.2 hPa SW 3.2 km/h 6.4 km/h 99% 0 mm 0 W/m2
22:30 8.9 °C 8.8 °C 1022.2 hPa SW 3.2 km/h 6.4 km/h 99% 0 mm 0 W/m2
22:40 8.9 °C 8.8 °C 1022.2 hPa SW 3.2 km/h 8 km/h 99% 0 mm 0 W/m2
22:50 8.9 °C 8.7 °C 1022.2 hPa SW 3.2 km/h 4.8 km/h 99% 0 mm 0 W/m2
23:00 8.8 °C 8.7 °C 1022.2 hPa SW 3.2 km/h 6.4 km/h 99% 0 mm 0 W/m2
23:10 8.8 °C 8.7 °C 1022.2 hPa SW 3.2 km/h 6.4 km/h 99% 0 mm 0 W/m2
23:20 8.8 °C 8.7 °C 1022.2 hPa SW 1.6 km/h 6.4 km/h 99% 0 mm 0 W/m2
23:30 8.8 °C 8.7 °C 1022.2 hPa Calm   6.4 km/h 99% 0 mm 0 W/m2
23:40 8.8 °C 8.7 °C 1022.2 hPa Calm   6.4 km/h 99% 0 mm 0 W/m2
23:50 8.8 °C 8.7 °C 1022.2 hPa ESE 1.6 km/h 4.8 km/h 99% 0 mm 0 W/m2
Knjazevac, Serbia
Compliments of Weather Underground - 2 mb